Location: Castiglione Fibocchi
(43.5333°N, 11.7667°E)
Time: 10:21:37
(UTC+00:00)

Cosmos 2084 Rocket - Pass Details

Date: 15 August 2020
Orbit: 550 x 631 km, 62.8° (Epoch: 18 September)

Event Time Altitude Azimuth Distance (km) Brightness Sun altitude
Rises 03:43:51 0° 325° (NW) 2,861 6.9 -6.5°
Reaches altitude 10° 03:46:08 10° 329° (NNW) 1,967 6.1 -6.2°
Maximum altitude 03:50:32 57° 49° (NE) 730 4.4 -5.4°
Drops below altitude 10° 03:55:00 10° 129° (SE) 1,994 6.6 -4.7°
Sets 03:57:19 0° 133° (SE) 2,903 7.3 -4.3°
